Time,TemperatureF,DewpointF,PressureIn,WindDirection,WindDirectionDegrees,WindSpeedMPH,WindSpeedGustMPH,Humidity,HourlyPrecipIn,Conditions,Clouds,dailyrainin,SoftwareType,DateUTC
2013-04-12 00:08:00,26.2,21.0,30.03,SSE,147,0.0,0.0,81,0.00,,,0.00,weatherlink.com 1.10,2013-04-12 06:08:00,
2013-04-12 00:23:00,25.7,21.0,30.03,SSE,147,0.0,0.0,82,0.00,,,0.00,weatherlink.com 1.10,2013-04-12 06:23:00,
2013-04-12 00:38:00,25.5,21.0,30.03,SSE,147,0.0,0.0,83,0.00,,,0.00,weatherlink.com 1.10,2013-04-12 06:38:00,
2013-04-12 00:53:00,25.6,21.0,30.04,SSE,147,0.0,0.0,83,0.00,,,0.00,weatherlink.com 1.10,2013-04-12 06:53:00,
2013-04-12 01:08:00,26.0,22.0,30.03,SSE,147,0.0,0.0,83,0.00,,,0.00,weatherlink.com 1.10,2013-04-12 07:08:00,
2013-04-12 01:23:00,26.3,22.0,30.03,SSE,147,0.0,0.0,83,0.00,,,0.00,weatherlink.com 1.10,2013-04-12 07:23:00,
2013-04-12 01:38:00,26.5,22.0,30.03,SSE,147,0.0,0.0,83,0.00,,,0.00,weatherlink.com 1.10,2013-04-12 07:38:00,
2013-04-12 01:53:00,26.5,22.0,30.02,SSE,147,0.0,0.0,82,0.00,,,0.00,weatherlink.com 1.10,2013-04-12 07:53:00,
2013-04-12 02:08:00,26.5,22.0,30.02,SSE,147,0.0,0.0,82,0.00,,,0.00,weatherlink.com 1.10,2013-04-12 08:08:00,
2013-04-12 02:23:00,26.4,22.0,30.02,SSE,147,0.0,0.0,82,0.00,,,0.00,weatherlink.com 1.10,2013-04-12 08:23:00,
2013-04-12 02:38:00,26.1,21.0,30.01,SSE,147,0.0,0.0,82,0.00,,,0.00,weatherlink.com 1.10,2013-04-12 08:38:00,
2013-04-12 02:53:00,25.8,21.0,30.01,SSE,147,0.0,0.0,83,0.00,,,0.00,weatherlink.com 1.10,2013-04-12 08:53:00,
2013-04-12 03:08:00,25.5,21.0,30.00,SSE,147,0.0,0.0,83,0.00,,,0.00,weatherlink.com 1.10,2013-04-12 09:08:00,
2013-04-12 03:23:00,25.4,21.0,29.99,SSE,147,0.0,0.0,84,0.00,,,0.00,weatherlink.com 1.10,2013-04-12 09:23:00,
2013-04-12 03:38:00,25.4,21.0,29.98,WSW,246,0.0,2.0,82,0.00,,,0.00,weatherlink.com 1.10,2013-04-12 09:38:00,
2013-04-12 03:53:00,25.1,20.0,29.98,WSW,245,1.0,1.0,82,0.00,,,0.00,weatherlink.com 1.10,2013-04-12 09:53:00,
2013-04-12 04:08:00,24.6,20.0,29.98,WSW,245,0.0,0.0,83,0.00,,,0.00,weatherlink.com 1.10,2013-04-12 10:08:00,
2013-04-12 04:23:00,23.9,20.0,29.98,WSW,245,0.0,1.0,85,0.00,,,0.00,weatherlink.com 1.10,2013-04-12 10:23:00,
2013-04-12 04:38:00,23.2,19.0,29.97,WSW,245,0.0,0.0,85,0.00,,,0.00,weatherlink.com 1.10,2013-04-12 10:38:00,
2013-04-12 04:54:00,22.4,19.0,29.97,WSW,245,0.0,1.0,86,0.00,,,0.00,weatherlink.com 1.10,2013-04-12 10:54:00,
2013-04-12 05:09:00,21.7,18.0,29.97,WSW,245,0.0,0.0,87,0.00,,,0.00,weatherlink.com 1.10,2013-04-12 11:09:00,
2013-04-12 05:24:00,21.0,18.0,29.97,WSW,245,0.0,0.0,88,0.00,,,0.00,weatherlink.com 1.10,2013-04-12 11:24:00,
2013-04-12 05:39:00,20.3,17.0,29.97,WSW,245,0.0,0.0,88,0.00,,,0.00,weatherlink.com 1.10,2013-04-12 11:39:00,
2013-04-12 05:54:00,19.7,17.0,29.97,WSW,245,0.0,1.0,89,0.00,,,0.00,weatherlink.com 1.10,2013-04-12 11:54:00,
2013-04-12 06:09:00,19.7,17.0,29.97,WSW,245,0.0,1.0,89,0.00,,,0.00,weatherlink.com 1.10,2013-04-12 12:09:00,
2013-04-12 06:23:00,20.2,17.0,29.98,WSW,245,0.0,1.0,88,0.00,,,0.00,weatherlink.com 1.10,2013-04-12 12:23:00,
2013-04-12 06:39:00,20.5,18.0,29.98,WSW,245,0.0,1.0,88,0.00,,,0.00,weatherlink.com 1.10,2013-04-12 12:39:00,
2013-04-12 06:54:00,20.6,18.0,29.98,WSW,245,0.0,1.0,88,0.00,,,0.00,weatherlink.com 1.10,2013-04-12 12:54:00,
2013-04-12 07:09:00,21.1,18.0,29.98,WSW,245,0.0,1.0,88,0.00,,,0.00,weatherlink.com 1.10,2013-04-12 13:09:00,
2013-04-12 07:24:00,22.1,19.0,29.98,WSW,245,0.0,1.0,87,0.00,,,0.00,weatherlink.com 1.10,2013-04-12 13:24:00,
2013-04-12 07:39:00,23.3,19.0,29.98,WSW,245,0.0,1.0,84,0.00,,,0.00,weatherlink.com 1.10,2013-04-12 13:39:00,
2013-04-12 07:54:00,24.5,20.0,29.97,WSW,245,0.0,1.0,83,0.00,,,0.00,weatherlink.com 1.10,2013-04-12 13:54:00,
2013-04-12 08:09:00,25.3,20.0,29.98,ESE,107,0.0,2.0,81,0.00,,,0.00,weatherlink.com 1.10,2013-04-12 14:09:00,
2013-04-12 08:24:00,26.1,21.0,29.97,ESE,107,0.0,1.0,82,0.00,,,0.00,weatherlink.com 1.10,2013-04-12 14:24:00,
2013-04-12 08:39:00,28.6,24.0,29.96,ESE,106,0.0,3.0,82,0.00,,,0.00,weatherlink.com 1.10,2013-04-12 14:39:00,
2013-04-12 08:54:00,29.9,25.0,29.96,ESE,113,0.0,4.0,81,0.00,,,0.00,weatherlink.com 1.10,2013-04-12 14:54:00,
2013-04-12 09:09:00,31.1,25.0,29.96,ESE,115,0.0,4.0,79,0.00,,,0.00,weatherlink.com 1.10,2013-04-12 15:09:00,
2013-04-12 09:24:00,31.0,26.0,29.95,East,95,0.0,4.0,80,0.00,,,0.00,weatherlink.com 1.10,2013-04-12 15:24:00,
2013-04-12 09:39:00,33.5,25.0,29.95,ESE,114,1.0,2.0,72,0.00,,,0.00,weatherlink.com 1.10,2013-04-12 15:39:00,
2013-04-12 09:54:00,35.8,25.0,29.95,ESE,113,5.0,7.0,64,0.00,,,0.00,weatherlink.com 1.10,2013-04-12 15:54:00,
2013-04-12 10:09:00,34.6,25.0,29.95,SE,140,0.0,6.0,67,0.00,,,0.00,weatherlink.com 1.10,2013-04-12 16:09:00,
2013-04-12 10:24:00,36.1,25.0,29.94,SW,219,0.0,8.0,65,0.00,,,0.00,weatherlink.com 1.10,2013-04-12 16:24:00,
2013-04-12 10:39:00,36.1,23.0,29.95,ESE,106,0.0,6.0,60,0.00,,,0.00,weatherlink.com 1.10,2013-04-12 16:39:00,
2013-04-12 10:54:00,35.7,25.0,29.95,ESE,107,4.0,8.0,64,0.00,,,0.00,weatherlink.com 1.10,2013-04-12 16:54:00,
2013-04-12 11:09:00,35.1,25.0,29.96,ESE,120,3.0,10.0,66,0.00,,,0.00,weatherlink.com 1.10,2013-04-12 17:09:00,
2013-04-12 11:24:00,35.9,25.0,29.95,ESE,122,1.0,6.0,66,0.00,,,0.00,weatherlink.com 1.10,2013-04-12 17:24:00,
2013-04-12 11:39:00,37.3,26.0,29.95,SE,125,3.0,7.0,65,0.00,,,0.00,weatherlink.com 1.10,2013-04-12 17:39:00,
2013-04-12 11:55:00,37.2,24.0,29.95,East,96,7.0,10.0,60,0.00,,,0.00,weatherlink.com 1.10,2013-04-12 17:55:00,
2013-04-12 12:09:00,33.0,28.0,29.97,South,172,0.0,11.0,82,0.00,,,0.00,weatherlink.com 1.10,2013-04-12 18:09:00,
2013-04-12 12:25:00,34.2,29.0,29.95,ESE,114,1.0,2.0,81,0.00,,,0.00,weatherlink.com 1.10,2013-04-12 18:25:00,
2013-04-12 13:40:00,42.8,23.0,29.92,ESE,104,2.0,11.0,46,0.00,,,0.00,weatherlink.com 1.10,2013-04-12 19:40:00,
2013-04-12 13:55:00,42.4,24.0,29.93,ESE,117,8.0,13.0,48,0.00,,,0.00,weatherlink.com 1.10,2013-04-12 19:55:00,
2013-04-12 14:10:00,41.9,22.0,29.92,ESE,113,10.0,13.0,46,0.00,,,0.00,weatherlink.com 1.10,2013-04-12 20:10:00,
2013-04-12 14:25:00,41.9,22.0,29.92,ESE,118,4.0,19.0,46,0.00,,,0.00,weatherlink.com 1.10,2013-04-12 20:25:00,
2013-04-12 14:40:00,37.4,27.0,29.95,East,90,4.0,18.0,66,0.00,,,0.00,weatherlink.com 1.10,2013-04-12 20:40:00,
2013-04-12 14:55:00,38.2,24.0,29.93,NW,310,0.0,8.0,58,0.00,,,0.00,weatherlink.com 1.10,2013-04-12 20:55:00,
2013-04-12 15:10:00,42.2,23.0,29.93,East,91,4.0,10.0,46,0.00,,,0.00,weatherlink.com 1.10,2013-04-12 21:10:00,
2013-04-12 15:25:00,40.2,19.0,29.93,SSE,155,2.0,13.0,42,0.00,,,0.00,weatherlink.com 1.10,2013-04-12 21:25:00,
2013-04-12 15:40:00,38.9,17.0,29.94,ESE,109,5.0,14.0,42,0.00,,,0.00,weatherlink.com 1.10,2013-04-12 21:40:00,
2013-04-12 15:55:00,40.4,16.0,29.93,ESE,112,5.0,13.0,38,0.00,,,0.00,weatherlink.com 1.10,2013-04-12 21:55:00,
2013-04-12 16:10:00,42.1,16.0,29.93,ESE,117,3.0,11.0,35,0.00,,,0.00,weatherlink.com 1.10,2013-04-12 22:10:00,
2013-04-12 16:25:00,43.8,15.0,29.92,ESE,104,1.0,9.0,31,0.00,,,0.00,weatherlink.com 1.10,2013-04-12 22:25:00,
2013-04-12 16:40:00,44.1,13.0,29.92,ENE,68,5.0,11.0,28,0.00,,,0.00,weatherlink.com 1.10,2013-04-12 22:40:00,
2013-04-12 16:55:00,43.9,10.0,29.92,East,99,5.0,11.0,25,0.00,,,0.00,weatherlink.com 1.10,2013-04-12 22:55:00,
2013-04-12 17:10:00,44.5,11.0,29.92,NE,45,2.0,9.0,26,0.00,,,0.00,weatherlink.com 1.10,2013-04-12 23:10:00,
2013-04-12 17:25:00,44.4,13.0,29.92,SW,221,2.0,12.0,28,0.00,,,0.00,weatherlink.com 1.10,2013-04-12 23:25:00,
2013-04-12 17:40:00,43.6,12.0,29.92,SE,124,6.0,9.0,28,0.00,,,0.00,weatherlink.com 1.10,2013-04-12 23:40:00,
2013-04-12 17:55:00,43.6,11.0,29.93,ESE,103,0.0,9.0,26,0.00,,,0.00,weatherlink.com 1.10,2013-04-12 23:55:00,
2013-04-12 18:10:00,43.1,13.0,29.93,ESE,105,3.0,8.0,29,0.00,,,0.00,weatherlink.com 1.10,2013-04-13 00:10:00,
2013-04-12 18:25:00,42.4,14.0,29.93,East,90,3.0,10.0,31,0.00,,,0.00,weatherlink.com 1.10,2013-04-13 00:25:00,
2013-04-12 18:40:00,42.0,14.0,29.93,ESE,102,3.0,9.0,32,0.00,,,0.00,weatherlink.com 1.10,2013-04-13 00:40:00,
2013-04-12 18:55:00,41.1,15.0,29.93,SE,124,1.0,8.0,34,0.00,,,0.00,weatherlink.com 1.10,2013-04-13 00:55:00,
2013-04-12 19:10:00,39.2,15.0,29.94,ESE,112,0.0,6.0,37,0.00,,,0.00,weatherlink.com 1.10,2013-04-13 01:10:00,
2013-04-12 19:25:00,37.3,15.0,29.94,ESE,110,0.0,3.0,41,0.00,,,0.00,weatherlink.com 1.10,2013-04-13 01:25:00,
2013-04-12 19:40:00,34.7,19.0,29.95,ESE,110,0.0,0.0,52,0.00,,,0.00,weatherlink.com 1.10,2013-04-13 01:40:00,
2013-04-12 19:55:00,31.4,17.0,29.96,SSE,148,0.0,1.0,56,0.00,,,0.00,weatherlink.com 1.10,2013-04-13 01:55:00,
2013-04-12 20:10:00,29.6,17.0,29.96,South,186,0.0,1.0,60,0.00,,,0.00,weatherlink.com 1.10,2013-04-13 02:10:00,
2013-04-12 20:25:00,28.4,17.0,29.97,South,186,0.0,1.0,63,0.00,,,0.00,weatherlink.com 1.10,2013-04-13 02:25:00,
2013-04-12 20:40:00,27.9,17.0,29.98,South,191,0.0,1.0,63,0.00,,,0.00,weatherlink.com 1.10,2013-04-13 02:40:00,
2013-04-12 20:56:00,27.5,17.0,29.98,South,191,0.0,0.0,65,0.00,,,0.00,weatherlink.com 1.10,2013-04-13 02:56:00,
2013-04-12 21:10:00,27.1,17.0,30.00,South,191,0.0,0.0,66,0.00,,,0.00,weatherlink.com 1.10,2013-04-13 03:10:00,
2013-04-12 21:25:00,26.9,18.0,30.00,South,191,0.0,1.0,68,0.00,,,0.00,weatherlink.com 1.10,2013-04-13 03:25:00,
2013-04-12 21:40:00,26.5,16.0,30.01,South,191,0.0,0.0,66,0.00,,,0.00,weatherlink.com 1.10,2013-04-13 03:40:00,
2013-04-12 21:55:00,26.1,17.0,30.02,South,191,0.0,1.0,69,0.00,,,0.00,weatherlink.com 1.10,2013-04-13 03:55:00,
2013-04-12 22:10:00,25.7,17.0,30.02,South,191,0.0,1.0,70,0.00,,,0.00,weatherlink.com 1.10,2013-04-13 04:10:00,
2013-04-12 22:25:00,25.4,18.0,30.01,South,191,0.0,0.0,72,0.00,,,0.00,weatherlink.com 1.10,2013-04-13 04:25:00,
2013-04-12 22:40:00,24.9,16.0,30.02,South,191,0.0,0.0,70,0.00,,,0.00,weatherlink.com 1.10,2013-04-13 04:40:00,
2013-04-12 22:55:00,24.6,16.0,30.02,SSW,205,1.0,1.0,70,0.00,,,0.00,weatherlink.com 1.10,2013-04-13 04:55:00,
2013-04-12 23:10:00,24.2,16.0,30.02,SSW,205,0.0,1.0,72,0.00,,,0.00,weatherlink.com 1.10,2013-04-13 05:10:00,
2013-04-12 23:25:00,24.1,16.0,30.02,SSW,205,0.0,1.0,72,0.00,,,0.00,weatherlink.com 1.10,2013-04-13 05:25:00,
2013-04-12 23:40:00,23.7,17.0,30.02,SSW,205,0.0,0.0,74,0.00,,,0.00,weatherlink.com 1.10,2013-04-13 05:40:00,
2013-04-12 23:55:00,23.4,17.0,30.02,SSW,205,0.0,0.0,76,0.00,,,0.00,weatherlink.com 1.10,2013-04-13 05:55:00,